When you browse on this site, cookies collect data to enhance your experience and personalize the content and advertising you see.
Visit our Privacy Policy to learn more. By continuing to use the site, you agree to this use of cookies and data.
  • en Suisse
  • Liste des pays
  • À 7 jours
  • Température de l'eau
  • Carte météo
  • Widgets météo
  • user-avatar
    Se connecter

    Météo par heure à Barisal

    Ce jour, 14 Octobre, Lundi

    Heure Température Précipitation Vent Pression Humidité
    00:00 +26°C° 0 mm 1 m/s 758 mmHg 80%
    01:00 +26°C° 0 mm 1 m/s 757 mmHg 79%
    02:00 +26°C° 0 mm 2 m/s 757 mmHg 79%
    03:00 +25°C° 0 mm 2 m/s 757 mmHg 78%
    04:00 +25°C° 0 mm 2 m/s 757 mmHg 79%
    05:00 +25°C° 0 mm 2 m/s 757 mmHg 79%
    06:00 +25°C° 0 mm 1 m/s 758 mmHg 82%
    07:00 +27°C° 0 mm 1 m/s 758 mmHg 78%
    08:00 +28°C° 0 mm 2 m/s 759 mmHg 75%
    09:00 +30°C° 0 mm 2 m/s 759 mmHg 71%
    10:00 +31°C° 0 mm 2 m/s 759 mmHg 66%
    11:00 +32°C° 0 mm 2 m/s 758 mmHg 61%
    12:00 +34°C° 0 mm 2 m/s 758 mmHg 53%
    13:00 +34°C° 0 mm 2 m/s 758 mmHg 53%
    14:00 +34°C° 0 mm 2 m/s 757 mmHg 52%
    15:00 +35°C° 0 mm 3 m/s 756 mmHg 52%
    16:00 +32°C° 0 mm 2 m/s 756 mmHg 57%
    17:00 +30°C° 0 mm 2 m/s 756 mmHg 62%
    18:00 +29°C° 0 mm 2 m/s 756 mmHg 66%
    19:00 +28°C° 0 mm 2 m/s 757 mmHg 69%
    20:00 +27°C° 0 mm 2 m/s 758 mmHg 71%
    21:00 +27°C° 0 mm 2 m/s 758 mmHg 73%
    22:00 +26°C° 0 mm 2 m/s 758 mmHg 74%
    23:00 +26°C° 0 mm 2 m/s 758 mmHg 74%

    Demain, 15 Octobre, Mardi

    Heure Température Précipitation Vent Pression Humidité
    00:00 +26°C° 0 mm 2 m/s 758 mmHg 75%
    01:00 +25°C° 0 mm 2 m/s 758 mmHg 76%
    02:00 +25°C° 0 mm 2 m/s 758 mmHg 77%
    03:00 +25°C° 0 mm 2 m/s 758 mmHg 78%
    04:00 +25°C° 0 mm 2 m/s 758 mmHg 79%
    05:00 +25°C° 0 mm 2 m/s 758 mmHg 81%
    06:00 +25°C° 0 mm 2 m/s 758 mmHg 83%
    07:00 +27°C° 0 mm 2 m/s 759 mmHg 78%
    08:00 +28°C° 0 mm 2 m/s 759 mmHg 73%
    09:00 +30°C° 0 mm 2 m/s 760 mmHg 69%
    10:00 +31°C° 0 mm 2 m/s 759 mmHg 64%
    11:00 +32°C° 0 mm 1 m/s 759 mmHg 60%
    12:00 +34°C° 0 mm 1 m/s 759 mmHg 55%
    13:00 +34°C° 0 mm 1 m/s 758 mmHg 55%
    14:00 +34°C° 0 mm 1 m/s 757 mmHg 55%
    15:00 +34°C° 0 mm 1 m/s 757 mmHg 54%
    16:00 +32°C° 0.1 mm 1 m/s 757 mmHg 62%
    17:00 +31°C° 0.1 mm 1 m/s 757 mmHg 69%
    18:00 +29°C° 0.1 mm 2 m/s 757 mmHg 76%
    19:00 +28°C° 0 mm 2 m/s 758 mmHg 78%
    20:00 +28°C° 0 mm 1 m/s 758 mmHg 80%
    21:00 +27°C° 0 mm 1 m/s 759 mmHg 82%
    22:00 +27°C° 0 mm 1 m/s 759 mmHg 82%
    23:00 +27°C° 0 mm 1 m/s 759 mmHg 83%

    Après-demain, 16 Octobre, Mercredi

    Heure Température Précipitation Vent Pression Humidité
    00:00 +27°C° 0 mm 1 m/s 759 mmHg 83%
    01:00 +27°C° 0 mm 1 m/s 758 mmHg 83%
    02:00 +26°C° 0 mm 1 m/s 758 mmHg 83%
    03:00 +24°C° 0 mm 0 m/s 758 mmHg 83%
    04:00 +26°C° 0 mm 1 m/s 758 mmHg 83%
    05:00 +26°C° 0 mm 1 m/s 758 mmHg 83%
    06:00 +26°C° 0 mm 1 m/s 759 mmHg 84%
    07:00 +27°C° 0 mm 1 m/s 759 mmHg 79%
    08:00 +29°C° 0 mm 1 m/s 759 mmHg 74%
    09:00 +30°C° 0 mm 1 m/s 760 mmHg 70%
    10:00 +32°C° 0 mm 1 m/s 759 mmHg 66%
    11:00 +33°C° 0 mm 1 m/s 759 mmHg 61%
    12:00 +32°C° 0 mm 0 m/s 758 mmHg 57%
    13:00 +34°C° 0.1 mm 1 m/s 758 mmHg 58%
    14:00 +33°C° 0.1 mm 1 m/s 757 mmHg 59%
    15:00 +33°C° 0.1 mm 1 m/s 756 mmHg 60%
    16:00 +32°C° 0.4 mm 1 m/s 756 mmHg 67%
    17:00 +30°C° 0.4 mm 1 m/s 757 mmHg 74%
    18:00 +29°C° 0.4 mm 1 m/s 757 mmHg 80%
    19:00 +28°C° 0 mm 1 m/s 757 mmHg 82%
    20:00 +28°C° 0 mm 1 m/s 758 mmHg 83%
    21:00 +27°C° 0 mm 2 m/s 758 mmHg 84%
    22:00 +27°C° 0 mm 2 m/s 758 mmHg 85%
    23:00 +27°C° 0 mm 2 m/s 758 mmHg 86%

    17 Octobre, Jeudi

    Heure Température Précipitation Vent Pression Humidité
    00:00 +27°C° 0 mm 1 m/s 758 mmHg 86%
    01:00 +27°C° 0 mm 1 m/s 758 mmHg 87%
    02:00 +26°C° 0 mm 1 m/s 758 mmHg 87%
    03:00 +26°C° 0 mm 1 m/s 758 mmHg 88%
    04:00 +26°C° 0 mm 1 m/s 758 mmHg 88%
    05:00 +26°C° 0 mm 1 m/s 758 mmHg 88%
    06:00 +26°C° 0 mm 1 m/s 759 mmHg 88%
    07:00 +28°C° 0 mm 2 m/s 759 mmHg 83%
    08:00 +29°C° 0 mm 2 m/s 759 mmHg 77%
    09:00 +31°C° 0 mm 2 m/s 760 mmHg 71%
    10:00 +32°C° 0 mm 2 m/s 759 mmHg 67%
    11:00 +34°C° 0 mm 2 m/s 759 mmHg 63%
    12:00 +35°C° 0 mm 2 m/s 758 mmHg 58%
    13:00 +35°C° 0 mm 2 m/s 758 mmHg 58%
    14:00 +35°C° 0 mm 2 m/s 757 mmHg 58%
    15:00 +35°C° 0 mm 2 m/s 756 mmHg 58%
    16:00 +33°C° 0 mm 1 m/s 756 mmHg 62%
    17:00 +31°C° 0 mm 1 m/s 756 mmHg 67%
    18:00 +30°C° 0 mm 1 m/s 756 mmHg 71%
    19:00 +30°C° 0 mm 1 m/s 757 mmHg 74%
    20:00 +29°C° 0 mm 1 m/s 757 mmHg 76%
    21:00 +29°C° 0 mm 1 m/s 757 mmHg 79%
    22:00 +28°C° 0 mm 2 m/s 758 mmHg 79%
    23:00 +28°C° 0 mm 2 m/s 758 mmHg 79%

    18 Octobre, Vendredi

    Heure Température Précipitation Vent Pression Humidité
    00:00 +27°C° 0 mm 2 m/s 758 mmHg 79%
    01:00 +27°C° 0 mm 2 m/s 758 mmHg 78%
    02:00 +27°C° 0 mm 2 m/s 758 mmHg 77%
    03:00 +27°C° 0 mm 2 m/s 757 mmHg 76%
    04:00 +26°C° 0 mm 2 m/s 758 mmHg 77%
    05:00 +26°C° 0 mm 2 m/s 758 mmHg 78%
    06:00 +26°C° 0 mm 2 m/s 758 mmHg 79%
    07:00 +28°C° 0 mm 2 m/s 758 mmHg 75%
    08:00 +29°C° 0 mm 2 m/s 759 mmHg 70%
    09:00 +31°C° 0 mm 2 m/s 759 mmHg 65%
    10:00 +32°C° 0 mm 2 m/s 759 mmHg 62%
    11:00 +34°C° 0 mm 2 m/s 759 mmHg 59%
    12:00 +35°C° 0 mm 2 m/s 758 mmHg 56%
    13:00 +35°C° 0 mm 2 m/s 757 mmHg 56%
    14:00 +35°C° 0 mm 2 m/s 757 mmHg 55%
    15:00 +35°C° 0 mm 2 m/s 756 mmHg 55%
    16:00 +34°C° 0 mm 2 m/s 756 mmHg 59%
    17:00 +31°C° 0 mm 2 m/s 756 mmHg 63%
    18:00 +30°C° 0 mm 1 m/s 756 mmHg 67%
    19:00 +29°C° 0 mm 1 m/s 757 mmHg 68%
    20:00 +29°C° 0 mm 2 m/s 758 mmHg 70%
    21:00 +28°C° 0 mm 2 m/s 758 mmHg 72%
    22:00 +28°C° 0 mm 2 m/s 758 mmHg 72%
    23:00 +27°C° 0 mm 1 m/s 758 mmHg 73%

    19 Octobre, Samedi

    Heure Température Précipitation Vent Pression Humidité
    00:00 +27°C° 0 mm 1 m/s 758 mmHg 73%
    01:00 +27°C° 0 mm 1 m/s 758 mmHg 73%
    02:00 +26°C° 0 mm 1 m/s 758 mmHg 74%
    03:00 +26°C° 0 mm 2 m/s 758 mmHg 74%
    04:00 +26°C° 0 mm 1 m/s 758 mmHg 74%
    05:00 +26°C° 0 mm 1 m/s 758 mmHg 75%
    06:00 +26°C° 0 mm 1 m/s 758 mmHg 76%
    07:00 +27°C° 0 mm 1 m/s 759 mmHg 72%
    08:00 +29°C° 0 mm 2 m/s 760 mmHg 69%
    09:00 +31°C° 0 mm 2 m/s 760 mmHg 65%
    10:00 +32°C° 0 mm 2 m/s 760 mmHg 62%
    11:00 +34°C° 0 mm 2 m/s 759 mmHg 58%
    12:00 +35°C° 0 mm 3 m/s 759 mmHg 54%
    13:00 +35°C° 0 mm 3 m/s 758 mmHg 54%
    14:00 +35°C° 0 mm 3 m/s 757 mmHg 54%
    15:00 +35°C° 0 mm 3 m/s 757 mmHg 55%
    16:00 +34°C° 0 mm 2 m/s 757 mmHg 58%
    17:00 +31°C° 0 mm 2 m/s 757 mmHg 62%
    18:00 +30°C° 0 mm 1 m/s 757 mmHg 66%
    19:00 +29°C° 0 mm 1 m/s 757 mmHg 68%
    20:00 +28°C° 0 mm 1 m/s 757 mmHg 70%
    21:00 +28°C° 0 mm 1 m/s 758 mmHg 72%
    22:00 +28°C° 0 mm 1 m/s 758 mmHg 73%
    23:00 +27°C° 0 mm 1 m/s 758 mmHg 74%
    Voir plus